Погода в Кордове

США     35°09′20″N   89°46′34″W
темп.,
°C
ветер,
м/с
пор.,
м/с
влажн.,
%
обл.,
%
осадки,
мм/ч
давл.,
гПа
погр.,
м
19 апреля, пн
пн1901:00+8сз36942 0.1 1017148
04:00+7зсз36930 0.0 1017127
07:00+6зсз24900 0.0 101895
10:00+14сз23640 0.0 1018568
13:00+18зсз33471 0.0 10171565
16:00+19з34422 0.0 10151757
19:00+15з225980 0.0 101524
22:00+12ю2263100 0.0 101615
20 апреля, вт
вт2001:00+11ю22660 0.0 101627
04:00+10ююз33710 0.0 101550
07:00+9ююв11781 0.0 101713
10:00+16ююз35592 0.0 1017638
13:00+20ююз57465 0.0 10142107
16:00+21юз684413 0.0 10122417
19:00+7ссз11188886 0.0 1015503
22:00+3с71492100 0.5 1020615
21 апреля, ср
ср2101:00+2ссз5119380 3.0 1023782
04:00+2с5984100 0.0 1023832
07:00+1ссз38925 0.1 1025508
10:00+6с35695 0.0 1027809
13:00+10с34495 0.0 10261461
16:00+12сз4642100 0.0 10241954
19:00+10зсз015619 0.0 1023156
22:00+7ю2357100 0.0 102458
22 апреля, чт
чт2201:00+8зюз2460100 0.0 1024136
04:00+5ссз237826 0.0 102464
07:00+5ссз2376100 0.0 102598
10:00+10ссз355594 0.0 1027859
13:00+13ссз444486 0.0 10261522
16:00+14с334383 0.0 10241584
19:00+12ссв2258100 0.0 1023146
22:00+9всв2262100 0.0 102445
23 апреля, пт
пт2301:00+8ссв3582100 0.7 1024181
04:00+7всв4788100 0.3 1023249
07:00+7в3887100 0.3 1023299
10:00+10юв5970100 0.0 1023415
13:00+13юв575997 0.0 1021579
16:00+18юв465290 0.0 10171225
19:00+14ююв4871100 0.0 1016304
22:00+13ююв51275100 0.1 1016428